Location: Coll
(42.4728°N, 0.7714°E)
Time: 07:29:48
(UTC+00:00)

CZ-2C R/B - Pass Details

Date: 23 October 2020
Orbit: 667 x 785 km, 98.2° (Epoch: 23 November)

Event Time Altitude Azimuth Distance (km) Brightness Sun altitude
Rises 04:46:02 0° 4° (N) 3,239 5.8 -17.9°
Reaches altitude 10° 04:48:33 10° 355° (N) 2,293 4.9 -17.5°
Maximum altitude 04:53:01 33° 293° (WNW) 1,238 3.1 -16.6°
Enters shadow 04:54:37 27° 257° (WSW) 1,407 3.3 -16.3°
